This is the latest recevied weather packets stored in our database for station/object W6MAF. If no packets are shown the sender has not sent any weather packets the latest 10 day(s).
| Time | Temp. | Humidity | Pressure | Rain* | Wind** | Luminosity | Snow |
|---|---|---|---|---|---|---|---|
| 1777289402 | 3.89° C | 84% | - | 0 mm | 3.58 m/s, 229° | - | - |
| 1777289105 | 3.89° C | 84% | - | 0 mm | 2.68 m/s, 255° | - | - |
| 1777288807 | 3.89° C | 83% | - | 0 mm | 3.13 m/s, 231° | - | - |
| 1777288509 | 4.44° C | 83% | - | 0 mm | 3.13 m/s, 210° | - | - |
| 1777288208 | 4.44° C | 82% | - | 0 mm | 3.58 m/s, 239° | - | - |
| 1777287911 | 4.44° C | 82% | - | 0 mm | 4.02 m/s, 224° | - | - |
| 1777287613 | 4.44° C | 82% | - | 0 mm | 4.47 m/s, 204° | - | - |
| 1777287315 | 4.44° C | 81% | - | 0 mm | 5.36 m/s, 187° | - | - |
| 1777287018 | 4.44° C | 81% | - | 0 mm | 5.36 m/s, 211° | - | - |
| 1777286720 | 4.44° C | 80% | - | 0 mm | 5.81 m/s, 211° | - | - |
| 1777286419 | 4.44° C | 79% | - | 0 mm | 5.36 m/s, 201° | - | - |
| 1777286121 | 4.44° C | 78% | - | 0 mm | 6.26 m/s, 235° | - | - |
| 1777285824 | 4.44° C | 77% | - | 0 mm | 5.36 m/s, 221° | - | - |
| 1777285526 | 4.44° C | 76% | - | 0 mm | 5.81 m/s, 195° | - | - |
| 1777285229 | 4.44° C | 75% | - | 0 mm | 4.92 m/s, 225° | - | - |
| 1777284931 | 4.44° C | 75% | - | 0 mm | 7.15 m/s, 210° | - | - |
| 1777284630 | 4.44° C | 74% | - | 0 mm | 5.81 m/s, 201° | - | - |
| 1777284333 | 4.44° C | 74% | - | 0 mm | 6.26 m/s, 197° | - | - |
| 1777284035 | 4.44° C | 74% | - | 0 mm | 5.81 m/s, 201° | - | - |
| 1777283737 | 4.44° C | 73% | - | 0 mm | 5.36 m/s, 194° | - | - |
| 1777283439 | 4.44° C | 73% | - | 0 mm | 5.81 m/s, 204° | - | - |
| 1777283142 | 4.44° C | 73% | - | 0 mm | 6.71 m/s, 183° | - | - |
| 1777282841 | 4.44° C | 74% | - | 0 mm | 6.26 m/s, 191° | - | - |
| 1777282543 | 4.44° C | 73% | - | 0 mm | 7.15 m/s, 190° | - | - |
| 1777282246 | 4.44° C | 74% | - | 0 mm | 7.15 m/s, 208° | - | - |
* Rain latest hour (hover to see other rain measurements)
** Current wind speed in m/s (hover to see current wind gust speed)